SCP
13 12 10 9 9 9 8 7 7 8 8 9 8 7 7 5 4 3 3 2 2 2 2 2 1 1 1 1 1 1 1 0 0 0 0 0 0 0 1 1 1 1 1
13 11 9 9 9 10 9 8 7 8 9 9 8 8 7 5 4 3 3 3 2 2 2 2 2 1 1 1 1 1 1 1 1 0 0 0 0 0 0 1 1 1 1
10 9 8 8 9 9 9 8 7 8 9 9 9 7 6 5 4 3 3 3 3 3 3 2 2 2 1 1 1 1 1 1 1 1 0 0 0 0 0 0 1 1 1
7 7 7 7 7 7 7 6 6 7 8 9 9 8 6 4 3 3 3 3 4 4 4 3 3 2 2 1 1 1 1 1 1 1 0 0 0 0 0 0 0 0 0
6 6 6 7 7 6 5 4 5 6 9 10 10 8 6 4 3 3 2 3 4 5 5 4 3 2 2 2 2 2 1 1 1 1 0 0 0 0 0 0 0 0 0
5 5 6 8 8 6 5 4 5 7 9 11 11 9 7 5 4 3 2 2 3 4 4 4 3 2 2 2 2 2 2 1 1 1 0 0 0 0 0 0 0 0 0
4 4 5 7 8 6 5 5 6 7 9 11 12 10 8 6 5 4 3 3 2 2 3 3 3 2 2 2 2 2 2 1 1 1 0 0 0 0 0 0 0 0 0
6 5 5 6 6 6 5 6 6 7 9 11 12 11 9 8 7 5 4 4 3 2 2 2 2 1 1 1 2 2 1 1 1 1 0 0 0 0 0 0 0 0 0
6 6 4 4 5 5 5 5 6 6 8 10 12 12 11 10 8 7 6 4 3 3 2 2 2 1 1 1 1 2 1 1 1 1 1 1 1 0 0 0 0 0 0
5 5 3 3 4 5 5 5 5 6 8 10 12 13 12 11 10 8 7 6 4 4 3 2 2 1 1 1 1 2 2 1 1 1 1 1 1 1 0 0 0 0 0
4 3 3 3 5 6 6 5 5 6 8 10 11 12 11 10 9 8 7 6 5 4 3 2 2 2 1 1 1 2 2 2 1 1 1 1 1 0 0 0 0 0 0
3 3 2 3 5 6 6 6 6 6 6 8 9 8 7 7 7 7 6 6 5 5 4 3 2 2 2 1 1 1 2 2 1 1 1 1 0 0 0 0 0 0 0
3 2 2 3 4 5 6 6 6 5 5 5 5 5 5 5 5 5 5 5 5 4 4 3 2 2 2 2 2 1 1 1 1 1 1 1 1 1 0 0 0 0 0
4 3 3 3 4 4 5 6 6 5 5 4 4 3 3 3 4 4 4 4 5 5 4 3 3 2 2 2 2 2 1 1 1 1 1 1 1 1 0 0 0 0 0
5 5 5 5 5 5 6 7 7 6 5 4 4 3 3 3 3 3 3 4 4 5 5 4 3 3 2 2 2 2 1 1 1 1 1 1 1 1 0 0 0 0 0
6 7 6 6 6 7 8 8 7 6 5 4 3 2 2 2 3 3 2 3 4 5 5 4 4 3 2 2 1 1 1 1 1 1 1 1 1 1 0 0 0 0 0
7 7 6 6 6 6 6 6 6 5 4 3 2 2 2 2 3 3 2 3 4 5 5 4 4 3 2 1 0 0 1 1 1 1 1 1 1 0 0 0 0 0 0
7 6 5 4 4 4 4 4 3 3 2 1 1 2 2 3 3 3 2 3 4 5 5 4 3 3 2 1 0 0 0 1 1 1 1 1 1 0 0 0 0 0 0
6 5 4 3 3 3 2 2 1 1 1 0 1 2 3 3 3 2 2 3 4 4 3 3 2 2 1 0 0 0 0 0 1 1 1 0 0 0 0 0 0 0 0
4 4 4 3 3 3 2 2 1 1 1 0 1 2 3 3 3 2 1 2 2 2 2 1 1 1 1 1 0 0 0 1 1 1 0 0 0 0 0 0 0 0 0
4 5 5 4 3 3 2 2 1 1 1 1 1 1 2 2 2 1 0 1 1 1 1 1 1 1 2 1 1 0 1 1 1 1 0 0 0 0 0 0 0 0 0
5 5 5 5 4 3 3 2 1 1 1 1 1 1 1 1 1 0 0 0 0 1 1 1 1 2 2 1 1 0 0 1 1 1 1 0 0 0 0 0 0 0 0
5 5 5 4 4 4 3 2 1 1 1 1 1 1 1 1 0 0 0 0 0 0 0 0 1 1 1 1 0 0 0 0 1 1 1 0 0 0 0 0 0 0 0
5 5 4 3 3 3 3 2 2 1 1 2 2 1 1 1 1 1 1 1 1 0 0 0 0 0 0 0 0 0 0 0 0 0 0 0 0 0 0 0 0 0 0
5 5 4 3 2 2 2 2 2 2 1 1 2 1 1 1 1 1 1 1 1 1 0 0 0 0 0 0 0 0 0 0 0 0 0 0 0 0 0 0 0 0 0
5 4 4 2 2 1 1 1 2 2 1 1 1 1 1 1 1 1 1 1 1 1 0 0 0 0 0 0 0 0 0 0 0 0 0 0 0 0 0 0 0 0 0
Wind_Speed
7 8 9 9 9 8 8 7 7 6 5 3 3 3 3 2 2 3 4 4 4 4 4 3 3 3 3 3 3 3 3 1 2 3 1 1 1 1 3 3 3 4 5
6 7 8 8 8 8 7 7 7 6 5 4 3 3 3 2 2 2 2 3 4 4 4 4 3 3 3 3 3 3 2 1 2 3 3 1 2 2 2 2 3 4 3
11 10 9 8 8 7 7 7 6 6 5 4 3 2 2 2 1 1 1 2 3 3 3 4 4 4 4 3 3 3 4 2 1 2 4 4 3 1 1 1 2 3 3
9 10 10 9 9 8 7 6 6 6 5 5 5 5 4 3 3 2 2 2 3 3 3 3 4 4 3 4 4 4 3 4 2 1 1 2 4 3 0 1 1 2 3
9 10 11 11 9 8 7 6 6 5 5 5 5 5 3 3 2 2 2 2 1 2 3 3 3 3 3 4 4 4 4 3 4 3 2 2 1 2 3 2 1 1 2
8 8 8 8 7 7 7 6 6 4 4 5 5 5 5 4 3 2 2 2 1 1 2 3 2 3 3 3 4 4 4 3 4 3 3 3 3 3 3 3 2 2 2
8 8 8 8 8 8 8 7 6 5 4 4 4 5 5 5 5 4 3 3 2 2 3 3 2 2 3 3 3 3 3 4 4 4 3 3 3 3 3 3 2 2 1
7 8 8 8 8 8 8 8 7 5 5 4 4 4 4 4 3 3 3 3 3 3 3 3 3 3 3 3 3 2 3 3 4 4 4 3 3 3 3 4 4 2 1
8 8 8 8 8 8 8 8 8 5 5 4 4 4 4 4 4 3 3 3 3 3 3 3 2 2 2 3 3 2 3 3 3 3 4 3 3 3 3 3 4 5 3
6 6 6 7 6 6 6 6 6 6 5 4 4 4 4 4 4 3 3 3 3 3 3 3 3 2 2 2 2 2 2 3 3 3 3 3 2 2 2 3 2 3 4
6 6 6 6 5 5 5 5 5 5 4 4 3 3 3 3 3 3 3 3 3 3 3 3 3 3 2 2 2 2 3 3 3 3 3 3 3 3 2 2 2 3 3
6 6 5 5 4 4 4 4 4 4 4 4 3 3 3 3 3 2 3 3 3 3 3 3 3 3 3 3 3 3 3 3 3 3 3 3 3 3 3 2 3 3 3
5 4 4 5 4 4 4 4 4 4 3 3 3 3 2 3 3 2 2 3 3 3 3 3 3 3 3 3 3 3 3 3 3 3 4 4 3 3 2 3 3 2 2
5 5 4 4 3 3 4 4 4 3 4 3 3 3 3 3 3 2 2 2 3 3 3 2 3 3 2 3 3 3 3 3 3 3 4 4 4 4 4 3 3 3 2
5 5 5 4 3 2 2 3 3 3 3 4 3 3 2 2 2 2 2 2 2 3 3 2 2 2 2 2 2 2 2 2 2 2 2 3 4 5 4 3 3 3 3
4 3 4 4 4 4 3 3 3 2 3 4 3 3 2 2 2 2 2 2 2 2 2 2 2 2 1 2 3 3 2 2 2 2 2 3 3 4 5 5 6 6 5
4 4 3 4 4 3 4 3 3 3 3 3 3 3 3 3 2 2 2 2 2 2 2 2 2 2 2 2 3 3 2 2 3 3 2 2 2 3 2 3 4 5 6
3 2 2 2 3 3 3 3 3 3 3 2 2 3 3 3 2 2 2 2 2 2 2 2 2 2 3 2 2 2 2 2 2 3 3 3 2 2 2 2 1 2 3
2 2 3 3 3 3 4 4 3 2 2 2 2 2 3 3 2 2 3 2 2 2 2 1 2 2 3 3 3 2 1 1 1 2 2 2 2 3 3 2 2 2 4
2 2 3 4 3 2 3 4 3 2 2 2 2 2 2 3 3 3 3 2 2 2 2 1 1 2 2 3 3 3 1 1 1 1 1 2 3 3 4 3 3 4 4
3 3 4 3 2 2 4 3 2 1 2 1 1 1 1 2 2 2 2 2 2 1 1 1 1 1 3 3 4 4 2 2 2 1 2 2 4 4 5 4 4 6 4
4 4 4 3 2 2 4 3 1 1 2 2 2 1 1 1 1 1 1 1 2 2 1 0 1 1 1 2 3 4 3 3 2 3 2 3 4 4 5 4 5 6 4
3 3 4 4 2 2 3 2 1 1 3 3 2 1 1 1 1 1 1 1 1 1 1 1 1 1 1 1 2 4 4 3 2 2 4 4 5 4 4 6 6 4 2
3 3 4 3 2 2 2 1 1 2 3 3 1 1 1 1 1 1 1 1 0 1 1 1 2 1 1 1 1 1 2 2 2 2 3 4 4 4 4 3 3 3 3
2 3 3 2 1 1 1 1 2 2 3 2 1 1 1 1 1 1 1 1 1 1 2 2 2 2 2 4 5 3 2 2 2 1 1 1 2 2 2 2 3 3 3
1 2 1 1 1 1 1 1 2 2 3 2 1 1 0 1 1 1 2 4 2 2 2 1 1 2 4 4 4 4 3 3 3 1 1 2 3 3 3 3 3 3 4
Wind_Direction
163 152 149 143 138 138 142 143 143 147 143 149 155 156 168 174 173 180 175 170 175 170 160 159 159 159 162 172 164 145 139 136 131 105 64 1 326 217 193 187 179 184 189
144 148 148 146 146 149 149 146 148 149 154 163 171 171 164 176 179 182 173 170 172 174 171 162 165 165 161 160 154 141 141 141 134 130 115 40 347 316 222 189 188 185 177
159 159 155 156 152 151 156 156 155 151 155 149 134 117 91 77 86 142 175 183 171 173 170 165 164 166 166 174 175 162 156 162 180 146 144 151 203 271 316 235 203 186 182
164 163 160 160 163 162 154 151 153 155 158 150 147 149 155 168 190 185 188 180 170 173 172 167 165 170 171 175 185 172 162 156 175 191 161 156 155 154 221 319 270 210 200
169 168 167 168 165 159 156 154 150 158 162 159 158 159 162 178 168 151 153 164 177 178 167 166 166 173 181 184 183 169 170 169 172 174 163 146 125 134 147 205 257 279 243
171 166 165 160 157 155 154 154 151 163 167 166 167 165 163 159 148 152 160 172 175 185 176 169 170 176 182 188 188 182 178 183 178 175 168 162 160 172 163 183 206 221 253
166 159 154 158 162 161 161 161 161 171 174 165 169 172 167 162 162 168 172 171 178 196 200 188 183 185 187 184 180 181 190 189 185 189 190 187 187 168 160 160 184 212 261
156 159 158 162 167 169 165 164 169 172 173 170 176 177 167 160 165 167 178 188 194 199 192 188 187 187 185 183 174 181 200 195 196 200 195 193 201 179 169 164 159 168 266
157 158 160 166 165 165 168 170 169 165 172 175 171 169 164 161 167 172 175 190 188 187 183 182 183 185 187 185 172 189 207 196 199 205 203 202 207 190 185 172 166 163 191
151 148 156 163 161 164 167 167 165 168 172 174 174 164 168 168 169 165 179 189 188 176 177 181 176 184 189 182 178 190 199 197 207 201 194 203 205 195 191 186 183 174 175
156 154 153 154 150 151 157 163 168 164 167 170 166 155 163 166 163 171 180 180 178 174 177 183 176 179 185 186 184 198 198 200 208 209 196 209 199 191 197 189 188 190 175
151 154 147 137 140 152 157 158 164 169 175 172 163 162 162 159 159 165 172 167 165 169 171 174 174 180 180 183 185 195 195 193 200 211 201 215 208 198 200 192 202 206 194
135 134 130 134 144 157 158 158 163 166 165 157 151 151 151 151 155 159 158 158 162 165 163 163 171 187 191 188 190 191 199 203 204 200 199 211 197 202 201 193 200 208 203
129 126 121 124 136 147 155 159 159 159 159 150 147 151 162 162 160 156 157 158 156 157 165 168 174 185 196 195 197 194 203 209 211 205 207 207 195 199 198 196 198 193 188
127 137 134 132 135 130 132 150 155 155 153 149 152 160 159 152 151 154 165 166 161 160 163 158 167 180 186 195 194 200 200 198 202 208 211 213 208 206 198 194 194 185 186
123 126 138 144 152 151 142 136 140 145 142 150 160 161 153 150 158 175 175 164 164 166 159 165 179 186 214 215 198 189 190 202 206 220 227 231 221 212 210 208 203 191 188
138 145 152 159 154 157 151 153 153 145 144 158 161 166 166 170 180 177 162 173 178 167 169 177 181 198 228 225 217 208 189 202 216 218 216 232 221 196 202 215 224 225 221
136 147 152 153 156 146 136 137 125 131 136 150 166 166 167 178 182 169 179 191 180 177 187 198 202 209 230 231 233 225 196 201 223 221 213 210 210 204 186 191 217 245 245
152 165 167 156 141 136 135 125 118 121 133 167 187 181 173 177 175 178 189 192 181 198 209 196 193 210 238 232 221 198 173 187 239 233 212 194 195 217 197 173 211 256 270
106 118 122 114 114 125 125 117 121 133 177 197 199 196 179 178 186 195 194 193 187 197 200 205 210 209 225 228 205 171 158 173 258 274 248 225 215 223 209 197 205 237 257
91 91 102 109 126 131 116 117 121 176 201 178 160 165 169 175 174 177 185 185 175 163 181 208 242 220 215 214 205 184 171 188 213 239 255 252 244 243 233 224 221 235 246
71 79 89 85 77 104 110 114 152 201 143 124 116 119 143 180 122 131 162 160 137 141 178 192 317 295 239 214 212 199 203 202 199 227 239 245 249 253 247 241 244 249 249
67 71 82 76 47 59 102 121 187 121 111 104 100 101 85 45 82 114 87 75 117 143 186 185 226 282 306 280 238 218 230 238 231 237 245 254 261 267 254 247 245 242 229
61 61 75 75 48 25 48 75 97 116 114 117 119 113 99 55 52 58 79 104 136 186 200 209 225 248 272 280 270 252 248 255 264 272 276 274 268 266 259 260 247 230 220
57 68 72 73 50 28 23 36 77 103 111 117 119 112 111 117 86 48 42 116 205 211 210 215 211 213 247 255 242 219 221 222 227 244 290 276 276 270 266 261 250 237 234
62 71 65 51 22 43 37 32 64 99 109 101 98 122 124 128 129 103 31 25 35 10 3 328 220 238 244 246 238 235 232 224 197 169 239 255 253 251 250 249 253 246 236